When you browse on this site, cookies collect data to enhance your experience and personalize the content and advertising you see.
Visit our Privacy Policy to learn more. By continuing to use the site, you agree to this use of cookies and data.
  • In Schweiz
  • Länderverzeichnis
  • Für 7 Tage
  • Wassertemperatur
  • Satellitenkarten
  • Wetterkarte
  • Widgets
  • user-avatar
    Anmelden

    Stündliche Wetter Sylchet

    Heute, 25 April, Donnerstag

    Zeit Temperatur Niederschläge Wind Luftdruck Luftfeuchtigkeit
    00:00 +30°C° 0 mm 1 m/S 755 mmHg 47%
    01:00 +29°C° 0 mm 1 m/S 755 mmHg 48%
    02:00 +29°C° 0 mm 1 m/S 755 mmHg 50%
    03:00 +29°C° 0 mm 2 m/S 754 mmHg 51%
    04:00 +28°C° 0 mm 1 m/S 755 mmHg 54%
    05:00 +28°C° 0 mm 1 m/S 755 mmHg 56%
    06:00 +28°C° 0 mm 1 m/S 755 mmHg 58%
    07:00 +30°C° 0 mm 1 m/S 755 mmHg 52%
    08:00 +32°C° 0 mm 1 m/S 756 mmHg 46%
    09:00 +36°C° 0 mm 2 m/S 756 mmHg 40%
    10:00 +37°C° 0 mm 1 m/S 756 mmHg 36%
    11:00 +40°C° 0 mm 1 m/S 755 mmHg 32%
    12:00 +42°C° 0 mm 1 m/S 755 mmHg 28%
    13:00 +42°C° 0 mm 1 m/S 754 mmHg 27%
    14:00 +42°C° 0 mm 2 m/S 753 mmHg 26%
    15:00 +42°C° 0 mm 2 m/S 752 mmHg 25%
    16:00 +40°C° 0 mm 2 m/S 752 mmHg 29%
    17:00 +39°C° 0 mm 2 m/S 752 mmHg 32%
    18:00 +37°C° 0 mm 1 m/S 752 mmHg 35%
    19:00 +36°C° 0 mm 1 m/S 753 mmHg 37%
    20:00 +34°C° 0 mm 1 m/S 753 mmHg 38%
    21:00 +33°C° 0 mm 1 m/S 754 mmHg 40%
    22:00 +32°C° 0 mm 1 m/S 754 mmHg 41%
    23:00 +32°C° 0 mm 1 m/S 754 mmHg 43%

    Morgen, 26 April, Freitag

    Zeit Temperatur Niederschläge Wind Luftdruck Luftfeuchtigkeit
    00:00 +31°C° 0 mm 1 m/S 754 mmHg 44%
    01:00 +31°C° 0 mm 1 m/S 754 mmHg 46%
    02:00 +30°C° 0 mm 2 m/S 754 mmHg 47%
    03:00 +30°C° 0 mm 2 m/S 753 mmHg 49%
    04:00 +29°C° 0 mm 2 m/S 754 mmHg 51%
    05:00 +29°C° 0 mm 2 m/S 754 mmHg 53%
    06:00 +29°C° 0 mm 2 m/S 754 mmHg 55%
    07:00 +31°C° 0 mm 1 m/S 754 mmHg 50%
    08:00 +33°C° 0 mm 1 m/S 755 mmHg 46%
    09:00 +36°C° 0 mm 1 m/S 755 mmHg 41%
    10:00 +37°C° 0 mm 1 m/S 755 mmHg 37%
    11:00 +40°C° 0 mm 1 m/S 754 mmHg 33%
    12:00 +42°C° 0 mm 1 m/S 754 mmHg 29%
    13:00 +42°C° 0 mm 2 m/S 753 mmHg 28%
    14:00 +42°C° 0 mm 2 m/S 752 mmHg 27%
    15:00 +43°C° 0 mm 3 m/S 752 mmHg 26%
    16:00 +42°C° 0 mm 3 m/S 752 mmHg 30%
    17:00 +39°C° 0 mm 2 m/S 751 mmHg 34%
    18:00 +38°C° 0 mm 2 m/S 751 mmHg 39%
    19:00 +37°C° 0 mm 2 m/S 752 mmHg 40%
    20:00 +35°C° 0 mm 1 m/S 753 mmHg 41%
    21:00 +34°C° 0 mm 1 m/S 753 mmHg 43%
    22:00 +33°C° 0 mm 1 m/S 754 mmHg 44%
    23:00 +32°C° 0 mm 1 m/S 754 mmHg 45%

    übermorgen, 27 April, Samstag

    Zeit Temperatur Niederschläge Wind Luftdruck Luftfeuchtigkeit
    00:00 +31°C° 0 mm 1 m/S 754 mmHg 46%
    01:00 +31°C° 0.1 mm 1 m/S 754 mmHg 49%
    02:00 +30°C° 0.1 mm 2 m/S 753 mmHg 52%
    03:00 +30°C° 0.1 mm 2 m/S 753 mmHg 55%
    04:00 +29°C° 0.2 mm 2 m/S 754 mmHg 58%
    05:00 +29°C° 0.2 mm 1 m/S 754 mmHg 62%
    06:00 +29°C° 0.2 mm 1 m/S 754 mmHg 65%
    07:00 +31°C° 0 mm 1 m/S 755 mmHg 60%
    08:00 +33°C° 0 mm 1 m/S 755 mmHg 56%
    09:00 +35°C° 0 mm 2 m/S 756 mmHg 51%
    10:00 +36°C° 0 mm 1 m/S 755 mmHg 45%
    11:00 +39°C° 0 mm 1 m/S 755 mmHg 39%
    12:00 +41°C° 0 mm 1 m/S 754 mmHg 33%
    13:00 +41°C° 0 mm 1 m/S 754 mmHg 32%
    14:00 +41°C° 0 mm 1 m/S 753 mmHg 31%
    15:00 +41°C° 0 mm 1 m/S 752 mmHg 30%
    16:00 +39°C° 0 mm 2 m/S 752 mmHg 34%
    17:00 +38°C° 0 mm 2 m/S 751 mmHg 38%
    18:00 +37°C° 0 mm 2 m/S 751 mmHg 42%
    19:00 +36°C° 0 mm 2 m/S 752 mmHg 45%
    20:00 +34°C° 0 mm 3 m/S 753 mmHg 49%
    21:00 +33°C° 0 mm 3 m/S 753 mmHg 53%
    22:00 +33°C° 0 mm 3 m/S 753 mmHg 55%
    23:00 +31°C° 0 mm 3 m/S 754 mmHg 58%

    28 April, Sonntag

    Zeit Temperatur Niederschläge Wind Luftdruck Luftfeuchtigkeit
    00:00 +31°C° 0 mm 3 m/S 754 mmHg 60%
    01:00 +30°C° 0.9 mm 3 m/S 753 mmHg 67%
    02:00 +29°C° 0.9 mm 2 m/S 753 mmHg 73%
    03:00 +28°C° 0.9 mm 1 m/S 753 mmHg 80%
    04:00 +28°C° 0.4 mm 1 m/S 754 mmHg 81%
    05:00 +28°C° 0.4 mm 1 m/S 754 mmHg 82%
    06:00 +28°C° 0.4 mm 2 m/S 754 mmHg 84%
    07:00 +29°C° 0.8 mm 2 m/S 755 mmHg 79%
    08:00 +31°C° 0.8 mm 3 m/S 756 mmHg 73%
    09:00 +33°C° 0.8 mm 3 m/S 756 mmHg 68%
    10:00 +34°C° 0.2 mm 3 m/S 756 mmHg 63%
    11:00 +36°C° 0.2 mm 3 m/S 755 mmHg 57%
    12:00 +37°C° 0.2 mm 2 m/S 755 mmHg 52%
    13:00 +37°C° 1 mm 2 m/S 754 mmHg 51%
    14:00 +37°C° 1 mm 2 m/S 753 mmHg 50%
    15:00 +38°C° 1 mm 2 m/S 752 mmHg 49%
    16:00 +36°C° 0.3 mm 2 m/S 752 mmHg 54%
    17:00 +35°C° 0.3 mm 2 m/S 752 mmHg 58%
    18:00 +34°C° 0.3 mm 2 m/S 751 mmHg 63%
    19:00 +32°C° 3.7 mm 2 m/S 752 mmHg 70%
    20:00 +30°C° 3.7 mm 2 m/S 753 mmHg 78%
    21:00 +29°C° 3.7 mm 3 m/S 753 mmHg 85%
    22:00 +29°C° 1.8 mm 2 m/S 754 mmHg 87%
    23:00 +28°C° 1.8 mm 2 m/S 754 mmHg 88%

    29 April, Montag

    Zeit Temperatur Niederschläge Wind Luftdruck Luftfeuchtigkeit
    00:00 +28°C° 1.8 mm 1 m/S 754 mmHg 90%
    01:00 +28°C° 0.4 mm 2 m/S 753 mmHg 90%
    02:00 +28°C° 0.4 mm 2 m/S 753 mmHg 90%
    03:00 +28°C° 0.4 mm 2 m/S 753 mmHg 90%
    04:00 +28°C° 0.4 mm 2 m/S 753 mmHg 90%
    05:00 +28°C° 0.4 mm 2 m/S 754 mmHg 90%
    06:00 +28°C° 0.4 mm 2 m/S 754 mmHg 90%
    07:00 +29°C° 1.5 mm 2 m/S 755 mmHg 85%
    08:00 +30°C° 1.5 mm 3 m/S 755 mmHg 80%
    09:00 +31°C° 1.5 mm 3 m/S 755 mmHg 75%
    10:00 +33°C° 0.8 mm 3 m/S 755 mmHg 73%
    11:00 +32°C° 0.8 mm 2 m/S 755 mmHg 71%
    12:00 +34°C° 0.8 mm 2 m/S 754 mmHg 69%
    13:00 +34°C° 1.7 mm 2 m/S 753 mmHg 67%
    14:00 +35°C° 1.7 mm 3 m/S 752 mmHg 65%
    15:00 +35°C° 1.7 mm 3 m/S 752 mmHg 62%
    16:00 +35°C° 0.8 mm 3 m/S 752 mmHg 66%
    17:00 +34°C° 0.8 mm 2 m/S 751 mmHg 69%
    18:00 +32°C° 0.8 mm 2 m/S 751 mmHg 73%
    19:00 +31°C° 2.9 mm 2 m/S 752 mmHg 78%
    20:00 +30°C° 2.9 mm 2 m/S 753 mmHg 84%
    21:00 +28°C° 2.9 mm 2 m/S 753 mmHg 89%
    22:00 +28°C° 0.9 mm 2 m/S 753 mmHg 90%
    23:00 +28°C° 0.9 mm 2 m/S 753 mmHg 91%

    30 April, Dienstag

    Zeit Temperatur Niederschläge Wind Luftdruck Luftfeuchtigkeit
    00:00 +28°C° 0.9 mm 2 m/S 754 mmHg 91%
    01:00 +28°C° 0.5 mm 2 m/S 753 mmHg 91%
    02:00 +28°C° 0.5 mm 2 m/S 753 mmHg 92%
    03:00 +28°C° 0.5 mm 2 m/S 753 mmHg 92%
    04:00 +28°C° 0.5 mm 2 m/S 753 mmHg 92%
    05:00 +28°C° 0.5 mm 2 m/S 753 mmHg 91%
    06:00 +28°C° 0.5 mm 2 m/S 754 mmHg 91%
    07:00 +29°C° 0.4 mm 3 m/S 754 mmHg 88%
    08:00 +30°C° 0.4 mm 3 m/S 754 mmHg 84%
    09:00 +31°C° 0.4 mm 3 m/S 755 mmHg 80%
    10:00 +31°C° 0.4 mm 3 m/S 754 mmHg 77%
    11:00 +33°C° 0.4 mm 3 m/S 754 mmHg 74%
    12:00 +34°C° 0.4 mm 3 m/S 753 mmHg 71%
    13:00 +34°C° 0.3 mm 3 m/S 752 mmHg 69%
    14:00 +34°C° 0.3 mm 3 m/S 752 mmHg 68%
    15:00 +35°C° 0.3 mm 3 m/S 751 mmHg 67%
    16:00 +34°C° 0.3 mm 3 m/S 751 mmHg 68%
    17:00 +34°C° 0.3 mm 3 m/S 751 mmHg 70%
    18:00 +34°C° 0.3 mm 3 m/S 750 mmHg 72%
    19:00 +31°C° 0.9 mm 3 m/S 751 mmHg 77%
    20:00 +30°C° 0.9 mm 3 m/S 752 mmHg 81%
    21:00 +29°C° 0.9 mm 2 m/S 752 mmHg 86%
    22:00 +29°C° 0.3 mm 2 m/S 752 mmHg 87%
    23:00 +29°C° 0.3 mm 2 m/S 752 mmHg 87%
    Mehr zeigen